Regional Weather Roundup
Issued by NWS

Home | Current Version | Previous Version | Text Only | Print | Product List | Glossary On
Versions: 1 2 3 4 5 6 7 8 9 10 11 12 13 14 15 16 17 18 19 20 21 22 23 24 25 26 27 28 29 30 31 32 33 34 35 36 37 38 39 40 41 42 43 44 45 46 47 48 49 50
000
ASUS44 KLIX 290511
RWRLA
LOUISIANA WEATHER ROUNDUP
NATIONAL WEATHER SERVICE NEW ORLEANS LA
1200 AM CDT MON AUG 29 2016

NOTE: "FAIR" INDICATES FEW OR NO CLOUDS BELOW 12,000 FEET WITH NO
      SIGNIFICANT WEATHER AND/OR OBSTRUCTIONS TO VISIBILITY.
      SKY/WX - SKY CONDITION AND SIGNIFICANT WEATHER.
      TMP - AIR TEMPERATURE.    DP   - DEWPOINT TEMPERATURE.
      RH  - RELATIVE HUMIDITY.  PRES - PRESSURE.
      HX  - HEAT INDEX.         WCI  - WIND CHILL INDEX.

*  THESE STATIONS ARE NOT NWS OR FAA STATIONS AND ARE NOT UNDER
   NWS QUALITY CONTROL.

LAZ040-048-061>063-065-066-069-290600-
SOUTHEAST LOUISIANA

CITY           SKY/WX    TMP DP  RH WIND       PRES   REMARKS
N.O. AUDUBON     N/A     82  76  83 MISG        N/A
N.O. INTL ARPT MOCLDY    82  74  76 NE6       29.98F
N.O. LAKEFRONT CLOUDY    81  75  82 NE9       29.99F
N.O. DOWNTOWN* FAIR      80  75  84 VRB3      29.99F
RESERVE*       FAIR      80  76  90 NE3       29.99F
SLIDELL        CLOUDY    76  75  97 N3        29.99F
BATON ROUGE    PTCLDY    75  74  96 CALM      30.00F
BOOTHVILLE     PTCLDY    82  78  88 NE7       29.98R
BELLE CHASSE   MOCLDY    78  76  93 NE3       29.98F
BOGALUSA*      FAIR      77  73  89 CALM      30.01F
GALLIANO*      PTCLDY   N/A N/A N/A CALM      29.98S
NEW ROADS*     FAIR      74  72  93 CALM      30.01S
GONZALES*      FAIR      77  76  97 CALM      29.98F
HAMMOND*       CLOUDY    75  72  88 CALM      30.00S
HOUMA*         CLEAR     76  75  97 NE3       29.98F
PORT FOURCHON* CLEAR     81  75  83 NE8       29.97F

$$

LAZ041-044-053-054-290600-
SOUTHWEST LOUISIANA

CITY           SKY/WX    TMP DP  RH WIND       PRES   REMARKS
LAKE CHARLES   PTCLDY    76  74  93 NE7       29.98R
LAFAYETTE      CLEAR     76  73  91 CALM      29.99S
PATTERSON      CLEAR     76  74  93 E6        29.99S
SALT POINT       N/A     77  74  90 CALM      29.96F
NEW IBERIA     CLEAR     76  73  91 NE7       29.99S
CHENAULT AIRPK PTCLDY    74  73  97 NE3       29.98S

$$

LAZ027-028-290600-
CENTRAL LOUISIANA

CITY           SKY/WX    TMP DP  RH WIND       PRES   REMARKS
FORT POLK      PTCLDY    76  70  82 E5        30.00R
ALEXANDRIA INT MOCLDY    75  72  90 E3        30.00R
ALEXANDRIA     PTCLDY    73  73 100 CALM      30.01R

$$

LAZ001-002-290600-
NORTHWEST LOUISIANA

CITY           SKY/WX    TMP DP  RH WIND       PRES   REMARKS
SHREVEPORT     PTCLDY    77  75  93 N6        30.02S
BARKSDALE AFB  PTCLDY    75  75 100 N7        30.03R
DTN SHREVEPORT PTCLDY    76  73  91 N3        30.03S

$$

LAZ014-016-290600-
NORTHEAST LOUISIANA

CITY           SKY/WX    TMP DP  RH WIND       PRES   REMARKS
MONROE         CLOUDY    76  74  93 S3        30.02R
TALLULAH       CLOUDY    77  74  90 NW3       30.01S

$$




USA.gov is the U.S. government's official web portal to all federal, state and local government web resources and services.